Weather Roundup
Issued by NWS Corpus Christi, TX

Home | Current Version | Previous Version | Text Only | Print | Product List | Glossary On
Versions: 1 2 3 4 5 6 7 8 9 10 11 12 13 14 15 16 17 18 19 20 21 22 23 24 25 26 27 28 29 30 31 32 33 34 35 36 37 38 39 40 41 42 43 44 45 46 47 48 49 50
618
ASUS44 KCRP 031710
HRRCRP

SOUTH TEXAS REGIONAL WEATHER ROUNDUP
NATIONAL WEATHER SERVICE CORPUS CHRISTI TX
1100 AM CST SAT DEC 03 2016


TXZ229>244-031800-
...CORPUS CHRISTI AREA OBSERVATIONS...

CITY           SKY/WX    TMP DP  RH WIND       PRES   REMARKS
CORPUS CHRISTI LGT RAIN  61  59  93 NE13      29.88F
NAS CORPUS CHR CLOUDY    64  61  90 N12       29.87F
ROCKPORT         N/A    N/A N/A N/A MISG      29.88F
ALICE          CLOUDY    63  59  87 NE10      29.88S
ORANGE GROVE   CLOUDY    60  58  92 NE13      29.90S
FALFURRIAS     PTSUNNY   69  64  83 NE7       29.85F
$$

...VICTORIA AREA OBSERVATIONS...

CITY           SKY/WX    TMP DP  RH WIND       PRES   REMARKS
VICTORIA       CLOUDY    54  52  93 N9        29.91F
BEEVILLE       CLOUDY    53  53 100 NE10      29.90S
PLEASANTON     LGT RAIN  51  50  96 NE10      29.94F
SAN ANTONIO    LGT RAIN  51  49  92 NE9       29.96F
$$

...LAREDO AREA OBSERVATIONS...

CITY           SKY/WX    TMP DP  RH WIND       PRES   REMARKS
LAREDO         LGT RAIN  57  56  96 NE12      29.89S FOG
COTULLA        LGT RAIN  55  52  89 NE14G21   29.92F
DEL RIO        LGT RAIN  55  54  96 N7        29.98R
MCALLEN        PTSUNNY   81  71  71 SE12      29.82F
HEBBRONVILLE   HVY RAIN  63  62  97 N7        29.87F VSB 1/2
$$

...OTHER TEXAS OBSERVATIONS...

CITY           SKY/WX    TMP DP  RH WIND       PRES   REMARKS
BROWNSVILLE    CLOUDY    83  71  67 S20G31    29.84F
HOUSTON        CLOUDY    54  52  93 N13       29.96R
COL. STATION   CLOUDY    51  49  92 NE12      29.99R
AUSTIN         RAIN      51  50  96 NE14      29.98F FOG
WACO           LGT RAIN  50  49  96 NE8       30.05F
FORT WORTH     CLOUDY    50  45  83 E9        30.09R
WICHITA FALLS  LGT RAIN  45  43  93 NE18      30.14F FOG
LUBBOCK        LGT RAIN  40  38  93 E10       30.11S WCI  33
EL PASO        RAIN      39  35  86 N17       30.01R WCI  30
$$

...MARINE OBSERVATIONS...

STATION/POSITION TIME  SKY/WX   TEMP    WIND        PRES    VSBY  WAVE   SWELL
                                AIR SEA DIR/SP/G                  HT/PER HT/PER
                 (UTC)          (F)     (DEG/KT/KT) (MB)    (MI)  (FT/S) (FT/S)
PORT ARANSAS     1700            60 68  350/ 14/ 17 1011.2F
BUOY 90 E PORT A 1650            79 77  160/ 23/ 27 1010.4F         9/ 9
BUOY 45 SE BAFFI 1650            77 74  190/ 12/ 14 1010.4F         7/ 8   7/ 8
BUOY 200 E PT IS 1650            79 80  150/ 17/ 21 1013.3F         8/ 8   3/24
BUOY 15 E GALVES 1650            73 68  150/ 17/ 21 1010.9F         8/ 9   5/ 9
$$




USA.gov is the U.S. government's official web portal to all federal, state and local government web resources and services.